Time,TemperatureF,DewpointF,PressureIn,WindDirection,WindDirectionDegrees,WindSpeedMPH,WindSpeedGustMPH,Humidity,HourlyPrecipIn,Conditions,Clouds,dailyrainin,SoftwareType,DateUTC
2013-06-18 07:10:00,51.0,46.0,-100.00,SSE,154,0.0,3.0,82,-99.99,,,-99.99,,2013-06-18 14:10:00,
2013-06-18 07:11:00,51.0,44.0,-100.00,NW,312,0.0,1.0,76,-99.99,,,-99.99,,2013-06-18 14:11:00,
2013-06-18 08:02:00,51.0,46.0,-100.00,SSE,154,0.0,3.0,82,-99.99,,,-99.99,,2013-06-18 15:02:00,
2013-06-18 09:01:00,54.0,46.0,-100.00,West,264,2.0,3.0,74,-99.99,,,-99.99,,2013-06-18 16:01:00,
2013-06-18 09:11:00,54.0,46.0,-100.00,West,264,2.0,3.0,74,-99.99,,,-99.99,,2013-06-18 16:11:00,
2013-06-18 10:02:00,59.0,46.0,-100.00,West,271,2.0,5.0,61,-99.99,,,-99.99,,2013-06-18 17:02:00,
2013-06-18 11:02:00,67.0,41.0,-100.00,West,278,1.0,3.0,38,-99.99,,,-99.99,,2013-06-18 18:02:00,
2013-06-18 11:11:00,67.0,41.0,-100.00,West,278,1.0,3.0,38,-99.99,,,-99.99,,2013-06-18 18:11:00,
2013-06-18 12:01:00,68.0,39.0,-100.00,NW,304,2.0,9.0,34,-99.99,,,-99.99,,2013-06-18 19:01:00,
2013-06-18 13:11:00,67.0,47.0,-100.00,NE,35,2.0,6.0,48,-99.99,,,-99.99,,2013-06-18 20:11:00,
2013-06-18 15:01:00,67.0,44.0,-100.00,ENE,65,2.0,6.0,43,-99.99,,,-99.99,,2013-06-18 22:01:00,
2013-06-18 15:10:00,64.0,46.0,-100.00,SSE,151,1.0,6.0,51,-99.99,,,-99.99,,2013-06-18 22:10:00,
2013-06-18 15:11:00,67.0,44.0,-100.00,ENE,65,2.0,6.0,43,-99.99,,,-99.99,,2013-06-18 22:11:00,
2013-06-18 16:10:00,61.0,48.0,-100.00,WNW,295,2.0,7.0,62,-99.99,,,-99.99,,2013-06-18 23:10:00,
2013-06-18 18:10:00,54.0,52.0,-100.00,WSW,239,0.0,1.0,92,-99.99,,,-99.99,,2013-06-19 01:10:00,
2013-06-18 19:00:00,54.0,53.0,-100.00,ESE,106,1.0,3.0,96,-99.99,,,-99.99,,2013-06-19 02:00:00,
2013-06-18 19:01:00,54.0,52.0,-100.00,WSW,239,0.0,1.0,92,-99.99,,,-99.99,,2013-06-19 02:01:00,
2013-06-18 20:10:00,53.0,52.0,-100.00,SE,133,1.0,3.0,96,-99.99,,,-99.99,,2013-06-19 03:10:00,
2013-06-18 21:01:00,53.0,52.0,-100.00,SE,133,1.0,3.0,96,-99.99,,,-99.99,,2013-06-19 04:01:00,
2013-06-18 22:01:00,52.0,51.0,-100.00,ESE,104,0.0,1.0,96,-99.99,,,-99.99,,2013-06-19 05:01:00,
2013-06-18 22:10:00,51.0,51.0,-100.00,SE,127,1.0,2.0,100,-99.99,,,-99.99,,2013-06-19 05:10:00,
2013-06-18 23:01:00,51.0,51.0,-100.00,SE,127,1.0,2.0,100,-99.99,,,-99.99,,2013-06-19 06:01:00,